Погода в Богословке

Россия / Омская область     55°02′04″N   73°43′30″E
темп.,
°C
ветер,
м/с
пор.,
м/с
влажн.,
%
обл.,
%
осадки,
мм/ч
давл.,
гПа
погр.,
м
9 марта, вт
вт900:00−13юз5138897 0.0 1018367
03:00−15ююз6128927 0.0 1018309
06:00−15ююз6138956 0.0 1017360
09:00−13ююз6139289 0.0 1017385
12:00−10ююз8129194 0.0 1017488
15:00−8ююз81390100 0.0 1016637
18:00−7ююз71485100 0.1 1015635
21:00−9ююз7168594 0.0 1015453
10 марта, ср
ср1000:00−9юз6138897 0.0 1014391
03:00−10юз5993100 0.0 1014265
06:00−11юз3596100 0.0 1014102
09:00−10ююв2395100 0.0 101269
12:00−7в3595100 0.4 1010247
15:00−7в5893100 1.8 1005431
18:00−8в5895100 3.2 1001506
21:00−10ссз339698 0.5 100048
11 марта, чт
чт1100:00−12зюз489792 0.6 1002146
03:00−13юз5109677 0.0 1003174
06:00−9ююз5139583 0.2 1004475
09:00−11юз71491100 0.2 1006555
12:00−10юз81387100 0.2 1008657
15:00−9ююз7128380 0.0 1009814
18:00−8ююз5109389 0.1 1008679
21:00−10юз41096100 0.4 1007348
12 марта, пт
пт1200:00−15зюз6129399 0.4 1007529
03:00−18юз61393100 0.1 1008502
06:00−16зюз71392100 0.2 1009601
09:00−20з71293100 0.1 1012554
12:00−19з71190100 0.1 1015745
15:00−17з81186100 0.1 1018982
18:00−18з61186100 0.1 1020593
21:00−23зюз459318 0.0 102375
13 марта, сб
сб1300:00−24юз44999 0.0 102553
03:00−23юз47990 0.0 102599
06:00−23юз499819 0.0 1025145
09:00−21юз599759 0.0 1026226
12:00−17юз699468 0.0 1027301
15:00−14юз699378 0.0 1027350
18:00−14юз599379 0.0 1026305
21:00−18юз489723 0.0 1027135